La Paz, Mexico

3:26 AM MDT on April 25, 2017 (GMT -0600)
Gen Manuel Marquez De Leon

Weather History for MMLP - January, 2013

Change the Weather History Date:

Wednesday, January 23, 2013

  Actual Average Record
Temperature  
Mean Temperature 70 °F -  
Max Temperature 82 °F 76 °F 89 °F (2014)
Min Temperature 58 °F 53 °F 41 °F (2006)
Cooling Degree Days 5    
Growing Degree Days 20 (Base 50)    
Moisture  
Dew Point 52 °F    
Average Humidity 53    
Maximum Humidity 88    
Minimum Humidity 20    
Precipitation  
Precipitation 0.00 in - - ()
Sea Level Pressure  
Sea Level Pressure 30.11 in    
Wind  
Wind Speed 4 mph ()    
Max Wind Speed 16 mph    
Max Gust Speed -    
Visibility 9.9 miles    
Events      
Averages and records for this station are not official NWS values.
T = Trace of Precipitation, MM = Missing Value Source: Averaged Metar Reports

Daily Weather History Graph

Daily Weather History Graph

Search for Another Location

Airport or City:

Trip Planner

Search our weather history database for the weather conditions in past years. The results will help you decide how hot, cold, wet, or windy it might be!

Date:

Astronomy

Jan. 23, 2013 Rise Set
Actual Time 7:05 AM MST 6:01 PM MST
Civil Twilight 6:41 AM MST 6:25 PM MST
Nautical Twilight 6:13 AM MST 6:53 PM MST
Astronomical Twilight 5:46 AM MST 7:20 PM MST
Moon 3:19 PM MST (1/23) 4:14 AM MST (1/23)
Length of Visible Light 11h 44m
Length of Day
10h 56m
Waxing Gibbous, 89% of the Moon is Illuminated
Jan 23
Waxing Gibbous
Jan 26
Full
Feb 3
Last Quarter
Feb 10
New
Feb 17
First Quarter

Hourly Weather History & Observations

Time (MST) Temp. Dew Point Humidity Pressure Visibility Wind Dir Wind Speed Gust Speed Precip Events Conditions
1:50 AM 60 °F 52 °F 68% 30.07 in 2 mi South 2.2 mph - -   Clear
4:50 AM 67 °F 50 °F 45% 30.07 in 2 mi North 4.5 mph - -   Clear
6:00 AM 60.8 °F 53.6 °F 77% 30.09 in 10.0 mi North 3.5 mph - N/A   Scattered Clouds
6:40 AM 60.8 °F 53.6 °F 77% 30.09 in 10.0 mi North 3.5 mph - N/A   Mostly Cloudy
7:41 AM 57.2 °F 53.6 °F 88% 30.17 in 10.0 mi West 3.5 mph - N/A   Mostly Cloudy
7:50 AM 65 °F 52 °F 54% 30.10 in 12 mi North 2.2 mph - -   Mostly Cloudy
8:40 AM 66.2 °F 57.2 °F 73% 30.11 in 10.0 mi WNW 3.5 mph - N/A   Mostly Cloudy
9:44 AM 68.0 °F 55.4 °F 64% 30.12 in 10.0 mi North - - N/A   Mostly Cloudy
10:49 AM 71.6 °F 53.6 °F 53% 30.17 in 10.0 mi NW 6.9 mph - N/A   Mostly Cloudy
10:50 AM 77 °F 55 °F 36% 30.12 in 19 mi NNW 6.7 mph - -   Mostly Cloudy
11:43 AM 73.4 °F 50.0 °F 44% 30.12 in 10.0 mi NW 9.2 mph - N/A   Mostly Cloudy
12:44 PM 73.4 °F 50.0 °F 44% 30.09 in 10.0 mi NNW 11.5 mph - N/A   Mostly Cloudy
1:49 PM 75.2 °F 48.2 °F 38% 30.12 in 10.0 mi NNW 16.1 mph - N/A   Mostly Cloudy
1:50 PM 82 °F 47 °F 20% 30.06 in 19 mi NNW 8.9 mph - -   Clear
3:01 PM 75.2 °F 46.4 °F 36% 30.06 in 10.0 mi NW 13.8 mph - N/A   Mostly Cloudy
3:42 PM 75.2 °F 46.4 °F 36% 30.06 in 10.0 mi NNW 13.8 mph - N/A   Mostly Cloudy
4:45 PM 78 °F 49 °F 25% 30.05 in 19 mi SW 4.5 mph - -   Clear
4:50 PM 73.4 °F 50.0 °F 44% 30.19 in 10.0 mi NW 9.2 mph - N/A   Mostly Cloudy
5:40 PM 71.6 °F 51.8 °F 50% 30.08 in 10.0 mi NW 5.8 mph - N/A   Mostly Cloudy
6:42 PM 68.0 °F 55.4 °F 64% 30.09 in 10.0 mi Calm Calm - N/A   Scattered Clouds
7:44 PM 72 °F 45 °F 27% 30.08 in 2 mi North 4.5 mph - -   Scattered Clouds
7:54 PM 66.2 °F 51.8 °F 60% 30.22 in 10.0 mi Calm Calm - N/A   Mostly Cloudy
8:43 PM 66.2 °F 55.4 °F 68% 30.12 in 10.0 mi Calm Calm - N/A   Mostly Cloudy
9:45 PM 66.2 °F 55.4 °F 68% 30.12 in 10.0 mi Calm Calm - N/A   Scattered Clouds
10:41 PM 60.8 °F 51.8 °F 72% 30.24 in 10.0 mi Calm Calm - N/A   Scattered Clouds
10:50 PM 67 °F 52 °F 47% 30.12 in 2 mi Calm Calm - -   Partly Cloudy